This is the latest recevied weather packets stored in our database for station/object K4AGR-13. If no packets are shown the sender has not sent any weather packets the latest 10 day(s).
| Time | Temp. | Humidity | Pressure | Rain* | Wind** | Luminosity | Snow |
|---|---|---|---|---|---|---|---|
| 1777687919 | 13.33° C | 94% | 1013.2 hPa | 3.05 mm | - | 0 W/m² | - |
| 1777673374 | 16.67° C | 91% | 1011.3 hPa | 0 mm | - | 76 W/m² | - |
| 1777671855 | 16.67° C | 91% | 1010.9 hPa | 0 mm | - | 119 W/m² | - |
| 1777671551 | 16.67° C | 90% | 1010.9 hPa | 1.78 mm | - | 122 W/m² | - |
| 1777671248 | 16.67° C | 90% | 1011 hPa | 1.78 mm | - | 120 W/m² | - |
| 1777670337 | 17.22° C | 89% | 1011.7 hPa | 0 mm | - | 48 W/m² | - |
| 1777669125 | 17.22° C | 89% | 1011.5 hPa | 0 mm | - | 96 W/m² | - |
| 1777668519 | 17.22° C | 89% | 1011.8 hPa | 0 mm | - | 89 W/m² | - |
| 1777667911 | 17.22° C | 89% | 1011.7 hPa | 0 mm | - | 108 W/m² | - |
| 1777667306 | 17.22° C | 89% | 1011.7 hPa | 1.27 mm | - | 149 W/m² | - |
| 1777666700 | 17.22° C | 89% | 1011.9 hPa | 0 mm | - | 135 W/m² | - |
| 1777666093 | 17.22° C | 87% | 1012.3 hPa | 0 mm | - | 162 W/m² | - |
| 1777665790 | 17.22° C | 86% | 1012.5 hPa | 0 mm | - | 110 W/m² | - |
| 1777665183 | 17.22° C | 85% | 1012.8 hPa | 0 mm | - | 85 W/m² | - |
| 1777664272 | 17.22° C | 83% | 1012.4 hPa | 0 mm | - | 83 W/m² | - |
| 1777663062 | 17.22° C | 81% | 1012.8 hPa | 0 mm | - | 157 W/m² | - |
| 1777661543 | 17.78° C | 77% | 1013.4 hPa | 0 mm | - | 156 W/m² | - |
| 1777661239 | 17.78° C | 76% | 1013.4 hPa | 0 mm | - | 170 W/m² | - |
| 1777660935 | 17.78° C | 76% | 1013.3 hPa | 0 mm | - | 186 W/m² | - |
| 1777660631 | 17.78° C | 75% | 1013.4 hPa | 0 mm | - | 213 W/m² | - |
| 1777660328 | 17.78° C | 75% | 1013.4 hPa | 0 mm | - | 260 W/m² | - |
| 1777660024 | 18.33° C | 77% | 1013.3 hPa | 0 mm | - | 278 W/m² | - |
| 1777659721 | 18.33° C | 76% | 1013.3 hPa | 0 mm | - | 175 W/m² | - |
| 1777659418 | 18.89° C | 74% | 1013.6 hPa | 0 mm | - | 173 W/m² | - |
| 1777658813 | 18.89° C | 73% | 1013.5 hPa | 0 mm | - | 267 W/m² | - |
* Rain latest hour (hover to see other rain measurements)
** Current wind speed in m/s (hover to see current wind gust speed)